Location: Winnipeg
(49.8830°N, 97.1670°W)
Time: 09:29:26
(UTC-06:00)

ISS - Visible Passes

Search period start: 24 January 2021 00:00
Search period end: 03 February 2021 00:00
Orbit: 418 x 421 km, 51.6° (Epoch: 24 January)

Date Brightness Start Highest point End Pass type
(mag) Time Alt. Az. Time Alt. Az. Time Alt. Az.
24 Jan -3.2 17:54:55 10° SW 17:58:11 49° SSE 18:01:19 11° ENE visible
24 Jan -2.9 19:31:37 10° W 19:34:17 49° WNW 19:34:17 49° WNW visible
25 Jan -3.8 18:44:11 10° W 18:47:35 77° NNW 18:48:52 35° ENE visible
25 Jan -0.6 20:21:12 10° WNW 20:21:50 15° WNW 20:21:50 15° WNW visible
26 Jan -3.7 17:56:48 10° WSW 18:00:11 88° SSE 18:03:25 11° ENE visible
26 Jan -2.8 19:33:46 10° W 19:36:23 46° NW 19:36:23 46° NW visible
27 Jan -3.6 18:46:19 10° W 18:49:41 62° N 18:50:56 34° ENE visible
27 Jan -0.6 20:23:15 10° WNW 20:23:55 15° WNW 20:23:55 15° WNW visible
28 Jan -3.6 17:58:52 10° W 18:02:14 67° N 18:05:30 11° ENE visible
28 Jan -3.0 19:35:50 10° WNW 19:38:28 50° WNW 19:38:28 50° WNW visible
29 Jan -3.7 18:48:24 10° WNW 18:51:47 67° N 18:53:03 34° E visible
29 Jan -0.6 20:25:17 10° WNW 20:26:01 15° W 20:26:01 15° W visible
30 Jan -3.6 18:00:56 10° W 18:04:18 62° N 18:07:40 10° E visible
30 Jan -3.1 19:37:49 10° WNW 19:40:38 55° WSW 19:40:38 55° WSW visible
31 Jan -3.8 18:50:23 10° WNW 18:53:46 88° SSW 18:55:19 30° ESE visible
31 Jan -0.6 20:27:29 10° W 20:28:18 15° W 20:28:18 15° W visible
01 Feb -3.7 18:02:55 10° WNW 18:06:18 76° N 18:09:41 10° E visible
01 Feb -2.5 19:39:51 10° W 19:42:58 35° SSW 19:43:03 35° SSW visible
02 Feb -3.0 18:52:19 10° WNW 18:55:36 49° SSW 18:57:55 17° SE visible
02 Feb -0.4 20:30:45 10° WSW 20:30:55 10° WSW 20:30:55 10° WSW visible
